User: anonymous   Login
Location: Unspecified
(0.0000°N, 0.0000°E)
Time: 09:11:25
(UTC+00:00)
Language:

Kosmos-2239 - Orbit

View from above orbital plane
View from above orbital plane
View from above satellite
View from above satellite

Ground track
Ground track

The orbit data is extracted from the following two-line orbital elements,

1 22590U 93020A   18109.76469397  .00000043  00000-0  29052-4 0  9991
2 22590  82.9344 193.8568 0022245 335.3575 141.2684 13.75389350257336
Epoch (UTC): 19 April 2018 18:21:09
Eccentricity: 0.0022245
inclination: 82.9344°
perigee height: 964 km
apogee height: 996 km
right ascension of ascending node: 193.8568°
argument of perigee: 335.3575°
revolutions per day: 13.75389350
mean anomaly at epoch: 141.2684°
orbit number at epoch: 25733

The dashed part of the orbit path shows where the satellite is in the earth's shadow,  

DLR